Tracking 19817 objects as of 18-Aug-2019
HD Live streaming from Space Station
objects crossing your sky now

FENGYUN 1C DEB

Track FENGYUN 1C DEB now!
10-day predictions


NORAD ID: 30809
Int'l Code: 1999-025AUT
Perigee: 810.4 km
Apogee: 897.1 km
Inclination: 98.9 °
Period: 101.9 minutes
Semi major axis: 7224 km
RCS: 0.0182 m2 (small)
Launch date: May 10, 1999
Source: People's Republic of China (PRC)
Launch site: Taiyaun Space Center, China (TSC)

Note: This is SATELLITE DEBRIS
aabbcc
Your satellite tracking list
Your tracking list is empty




NASA's NSSDC Master Catalog

Two Line Element Set (TLE):
1 30809U 99025AUT 19228.45536832 +.00000512 +00000-0 +28975-3 0  9995
2 30809 098.9099 294.3782 0059970 298.1966 061.3158 14.13736665643416
Source of the keplerian elements: AFSPC